This demonstration page uses our WeatherBlox Daily Observations layout. Learn more.

Left ArrowRight Arrow

Hourly Observations for January 23, 2022

Temp ( °F °C ) Dew Point ( °F °C ) Humidity (%) Winds ( mph kmh ) Pressure ( in mb ) Visibility ( mi km ) Precip ( " mm )
12:53 am 00:53 Clear 27 -2.8 14 -10 58 58 SW 5 7 30.14 1021 10 16 0.00 0.00
1:53 am 01:53 Mostly Cloudy 27 -2.8 14 -10 58 58 SW 6 9 30.11 1020 10 16 0.00 0.00
2:53 am 02:53 Cloudy 27 -2.8 15 -9.4 61 61 SW 3 6 30.09 1019 10 16 0.00 0.00
3:53 am 03:53 Cloudy 27 -2.8 15 -9.4 61 61 SW 7 11 30.07 1018 10 16 0.00 0.00
4:53 am 04:53 Cloudy 27 -2.8 15 -9.4 61 61 VRB 3 6 30.04 1017 10 16 0.00 0.00
5:53 am 05:53 Cloudy 27 -2.8 16 -8.9 63 63 SSW 5 7 30.01 1016 10 16 0.00 0.00
6:53 am 06:53 Mostly Cloudy 27 -2.8 16 -8.9 63 63 VRB 5 7 29.98 1015 10 16 0.00 0.00
7:53 am 07:53 Cloudy 28 -2.2 17 -8.3 63 63 VRB 6 9 29.93 1014 10 16 0.00 0.00
8:53 am 08:53 Cloudy 30 -1.1 18 -7.8 61 61 SSW 6 9 29.89 1012 10 16 0.00 0.00
9:53 am 09:53 Cloudy 31 -0.6 18 -7.8 59 59 VRB 7 11 29.87 1012 10 16 0.00 0.00
10:53 am 10:53 Cloudy with Light Snow 32 0 20 -6.7 61 61 SW 8 13 29.86 1011 6 10 0.00 0.00
11:08 am 11:08 Cloudy with Light Snow 31 -0.6 22 -5.6 69 69 SW 12 19 29.88 1012 2 3 0.00 0.00
11:12 am 11:12 Cloudy with Light Snow 31 -0.6 23 -5 72 72 SW 10 17 29.88 1012 2 2 0.00 0.00
11:26 am 11:26 Mostly Cloudy with Snow 30 -1.1 25 -3.9 82 82 SW 9 15 29.89 1012 1 1 0.00 0.00
11:45 am 11:45 Cloudy with Light Snow 30 -1.1 26 -3.3 85 85 SSW 8 13 29.88 1012 1 2 0.00 0.00
11:48 am 11:48 Cloudy with Light Snow 30 -1 27 -3 86 86 VRB 7 11 29.88 1012 2 3 0.00 0.00
11:53 am 11:53 Cloudy with Light Snow 30 -1.1 26 -3.3 85 85 VRB 5 7 29.86 1011 5 8 0.00 0.00
12:18 pm 12:18 Cloudy with Light Snow 32 0 26 -3.3 79 79 SW 7 11 29.85 1011 6 10 0.00 0.00
12:53 pm 12:53 Cloudy 35 1.7 27 -2.8 72 72 WSW 12 19 29.82 1010 10 16 0.01 0.25
1:36 pm 13:36 Mostly Cloudy 38 3.3 27 -2.8 65 65 W 12 19 29.81 1010 10 16 0.00 0.00
1:53 pm 13:53 Cloudy 37 2.8 27 -2.8 67 67 W 12 19 29.81 1009 10 16 0.00 0.00
2:03 pm 14:03 Cloudy 36 2.2 26 -3.3 67 67 W 12 19 29.82 1010 10 16 0.00 0.00
2:53 pm 14:53 Windy with Snow Likely 34 1.1 26 -3.3 73 73 WNW 22 35 29.85 1011 9 14 0.00 0.00
3:53 pm 15:53 Cloudy 28 -2.2 21 -6.1 75 75 NW 18 30 29.92 1013 10 16 0.00 0.00
4:53 pm 16:53 Cloudy with Light Snow 27 -2.8 20 -6.7 75 75 NW 15 24 29.95 1014 8 13 0.00 0.00
5:17 pm 17:17 Cloudy 27 -2.8 18 -7.8 69 69 NNW 10 17 29.98 1015 10 16 0.00 0.00
5:25 pm 17:25 Cloudy 27 -2.8 18 -7.8 69 69 NW 14 22 29.98 1015 9 14 0.00 0.00
5:53 pm 17:53 Cloudy 26 -3.3 16 -8.9 66 66 NNW 10 17 29.97 1015 10 16 0.00 0.00
6:53 pm 18:53 Cloudy 25 -3.9 16 -8.9 69 69 NNW 10 17 30.00 1016 10 16 0.00 0.00
7:53 pm 19:53 Cloudy 25 -3.9 15 -9.4 66 66 NNW 5 7 30.03 1017 10 16 0.00 0.00
8:53 pm 20:53 Cloudy 24 -4.4 15 -9.4 68 68 NW 8 13 30.04 1017 10 16 0.00 0.00
9:53 pm 21:53 Cloudy 23 -5 14 -10 68 68 N 5 7 30.04 1017 10 16 0.00 0.00
10:12 pm 22:12 Mostly Cloudy 21 -6.1 14 -10 74 74 NNW 6 9 30.06 1018 10 16 0.00 0.00
10:20 pm 22:20 Partly Cloudy 20 -6.7 14 -10 78 78 NNW 5 7 30.06 1018 10 16 0.00 0.00
10:53 pm 22:53 Clear 17 -8.3 12 -11.1 80 80 NNW 3 6 30.03 1017 10 16 0.00 0.00
11:53 pm 23:53 Clear 14 -10 11 -11.7 88 88 Calm 30.02 1017 10 16 0.00 0.00

Powered by AerisWeather